Tracking 21094 objects as of 11-Aug-2020
HD Live streaming from Space Station
objects crossing your sky now
Track the most recent launched group of Starlink satellites

FLOCK 3P 70

Track FLOCK 3P 70 now!
10-day predictions
FLOCK 3P 70 is classified as:


NORAD ID: 41980
Int'l Code: 2017-008AJ
Perigee: 487.0 km
Apogee: 500.2 km
Inclination: 97.4 °
Period: 94.3 minutes
Semi major axis: 6864 km
RCS: Unknown
Launch date: February 15, 2017
Source: United States (US)
Launch site: SRIHARIKOTA (SRI)
aabbcc
Your satellite tracking list
Your tracking list is empty




NASA's NSSDC Master Catalog

Two Line Element Set (TLE):
1 41980U 17008AJ  20224.18112957 +.00001089 +00000-0 +44540-4 0  9991
2 41980 097.3648 291.4752 0009633 102.8950 257.3365 15.26436116193769
Source of the keplerian elements: AFSPC